When you browse on this site, cookies collect data to enhance your experience and personalize the content and advertising you see.
Visit our Privacy Policy to learn more. By continuing to use the site, you agree to this use of cookies and data.
  • In United Kingdom
  • List of Countries
  • For 7 days
  • Water Temperature
  • Satellite Maps
  • Weather Map
  • Weather Widgets
  • user-avatar
    Login

    Hourly Weather Hobart

    Today, 22 February, Friday

    Time Temperature Precipitation Wind Pressure Humidity
    00:00 +12°C° 0 mm 1 mps 751 mmHg 89%
    01:00 +12°C° 0 mm 1 mps 751 mmHg 92%
    02:00 +10°C° 0 mm 2 mps 751 mmHg 92%
    03:00 +10°C° 0 mm 2 mps 751 mmHg 93%
    04:00 +10°C° 0 mm 2 mps 751 mmHg 94%
    05:00 +10°C° 0 mm 2 mps 752 mmHg 90%
    06:00 +12°C° 0 mm 2 mps 752 mmHg 86%
    07:00 +13°C° 0 mm 2 mps 752 mmHg 83%
    08:00 +15°C° 0 mm 2 mps 753 mmHg 73%
    09:00 +17°C° 0 mm 2 mps 753 mmHg 64%
    10:00 +19°C° 0 mm 2 mps 753 mmHg 55%
    11:00 +20°C° 0 mm 2 mps 753 mmHg 52%
    12:00 +21°C° 0 mm 2 mps 753 mmHg 49%
    13:00 +23°C° 0 mm 2 mps 753 mmHg 46%
    14:00 +23°C° 0 mm 2 mps 753 mmHg 47%
    15:00 +22°C° 0 mm 3 mps 753 mmHg 47%
    16:00 +22°C° 0 mm 3 mps 753 mmHg 48%
    17:00 +20°C° 0 mm 2 mps 753 mmHg 54%
    18:00 +19°C° 0 mm 2 mps 753 mmHg 60%
    19:00 +17°C° 0 mm 2 mps 754 mmHg 66%
    20:00 +16°C° 0 mm 2 mps 754 mmHg 73%
    21:00 +14°C° 0 mm 2 mps 754 mmHg 79%
    22:00 +13°C° 0 mm 2 mps 755 mmHg 86%
    23:00 +12°C° 0 mm 2 mps 755 mmHg 88%

    Tomorrow, 23 February, Saturday

    Time Temperature Precipitation Wind Pressure Humidity
    00:00 +12°C° 0 mm 2 mps 755 mmHg 91%
    01:00 +10°C° 0 mm 2 mps 755 mmHg 93%
    02:00 +10°C° 0 mm 3 mps 755 mmHg 92%
    03:00 +10°C° 0 mm 3 mps 755 mmHg 91%
    04:00 +10°C° 0 mm 3 mps 756 mmHg 90%
    05:00 +11°C° 0 mm 3 mps 756 mmHg 86%
    06:00 +11°C° 0 mm 3 mps 756 mmHg 83%
    07:00 +11°C° 0 mm 3 mps 757 mmHg 79%
    08:00 +13°C° 0 mm 3 mps 757 mmHg 69%
    09:00 +14°C° 0 mm 3 mps 758 mmHg 59%
    10:00 +17°C° 0 mm 3 mps 758 mmHg 50%
    11:00 +18°C° 0 mm 3 mps 758 mmHg 46%
    12:00 +18°C° 0 mm 3 mps 758 mmHg 43%
    13:00 +19°C° 0 mm 3 mps 758 mmHg 39%
    14:00 +19°C° 0 mm 3 mps 758 mmHg 41%
    15:00 +19°C° 0 mm 3 mps 758 mmHg 43%
    16:00 +18°C° 0 mm 3 mps 758 mmHg 45%
    17:00 +16°C° 0 mm 3 mps 758 mmHg 52%
    18:00 +15°C° 0 mm 2 mps 758 mmHg 59%
    19:00 +13°C° 0 mm 2 mps 758 mmHg 66%
    20:00 +11°C° 0 mm 1 mps 759 mmHg 73%
    21:00 +10°C° 0 mm 1 mps 759 mmHg 80%
    22:00 +8°C° 0 mm 0 mps 760 mmHg 86%
    23:00 +8°C° 0 mm 0 mps 759 mmHg 88%

    Day after tomorrow, 24 February, Sunday

    Time Temperature Precipitation Wind Pressure Humidity
    00:00 +9°C° 0 mm 1 mps 759 mmHg 90%
    01:00 +8°C° 0 mm 1 mps 759 mmHg 91%
    02:00 +8°C° 0 mm 1 mps 759 mmHg 92%
    03:00 +8°C° 0 mm 1 mps 759 mmHg 92%
    04:00 +8°C° 0 mm 1 mps 759 mmHg 93%
    05:00 +9°C° 0 mm 1 mps 759 mmHg 88%
    06:00 +9°C° 0 mm 2 mps 759 mmHg 83%
    07:00 +10°C° 0 mm 2 mps 760 mmHg 77%
    08:00 +14°C° 0 mm 2 mps 759 mmHg 64%
    09:00 +17°C° 0 mm 2 mps 759 mmHg 52%
    10:00 +20°C° 0 mm 3 mps 759 mmHg 39%
    11:00 +22°C° 0 mm 3 mps 759 mmHg 35%
    12:00 +24°C° 0 mm 3 mps 759 mmHg 31%
    13:00 +26°C° 0 mm 4 mps 759 mmHg 28%
    14:00 +26°C° 0 mm 4 mps 758 mmHg 30%
    15:00 +26°C° 0 mm 4 mps 758 mmHg 32%
    16:00 +25°C° 0 mm 5 mps 757 mmHg 35%
    17:00 +22°C° 0 mm 4 mps 757 mmHg 42%
    18:00 +20°C° 0 mm 4 mps 757 mmHg 49%
    19:00 +18°C° 0 mm 4 mps 757 mmHg 56%
    20:00 +17°C° 0 mm 4 mps 757 mmHg 60%
    21:00 +16°C° 0 mm 3 mps 757 mmHg 64%
    22:00 +14°C° 0 mm 3 mps 757 mmHg 68%
    23:00 +14°C° 0 mm 3 mps 757 mmHg 68%

    25 February, Monday

    Time Temperature Precipitation Wind Pressure Humidity
    00:00 +13°C° 0 mm 3 mps 756 mmHg 68%
    01:00 +12°C° 0 mm 3 mps 756 mmHg 68%
    02:00 +12°C° 0 mm 3 mps 756 mmHg 66%
    03:00 +12°C° 0 mm 3 mps 755 mmHg 64%
    04:00 +12°C° 0 mm 3 mps 755 mmHg 62%
    05:00 +13°C° 0 mm 3 mps 755 mmHg 59%
    06:00 +13°C° 0 mm 3 mps 755 mmHg 56%
    07:00 +15°C° 0 mm 2 mps 755 mmHg 53%
    08:00 +19°C° 0 mm 2 mps 755 mmHg 44%
    09:00 +24°C° 0 mm 2 mps 755 mmHg 36%
    10:00 +28°C° 0 mm 1 mps 755 mmHg 28%
    11:00 +30°C° 0 mm 1 mps 755 mmHg 25%
    12:00 +32°C° 0 mm 1 mps 754 mmHg 22%
    13:00 +34°C° 0 mm 1 mps 754 mmHg 19%
    14:00 +35°C° 0 mm 2 mps 753 mmHg 20%
    15:00 +34°C° 0 mm 2 mps 753 mmHg 21%
    16:00 +34°C° 0 mm 3 mps 752 mmHg 23%
    17:00 +29°C° 0 mm 3 mps 752 mmHg 33%
    18:00 +26°C° 0 mm 3 mps 752 mmHg 42%
    19:00 +22°C° 0 mm 3 mps 752 mmHg 52%
    20:00 +20°C° 0 mm 2 mps 752 mmHg 59%
    21:00 +18°C° 0 mm 2 mps 752 mmHg 65%
    22:00 +18°C° 0 mm 1 mps 752 mmHg 72%
    23:00 +16°C° 0 mm 1 mps 752 mmHg 75%

    26 February, Tuesday

    Time Temperature Precipitation Wind Pressure Humidity
    00:00 +15°C° 0 mm 1 mps 752 mmHg 77%
    01:00 +14°C° 0 mm 0 mps 751 mmHg 80%
    02:00 +14°C° 0 mm 0 mps 751 mmHg 83%
    03:00 +13°C° 0 mm 0 mps 751 mmHg 87%
    04:00 +13°C° 0 mm 0 mps 751 mmHg 90%
    05:00 +14°C° 0 mm 0 mps 751 mmHg 88%
    06:00 +14°C° 0 mm 0 mps 751 mmHg 86%
    07:00 +15°C° 0 mm 0 mps 752 mmHg 85%
    08:00 +18°C° 0 mm 1 mps 752 mmHg 79%
    09:00 +19°C° 0 mm 2 mps 752 mmHg 74%
    10:00 +20°C° 0 mm 3 mps 752 mmHg 69%
    11:00 +19°C° 0.1 mm 3 mps 752 mmHg 75%
    12:00 +17°C° 0.1 mm 4 mps 752 mmHg 80%
    13:00 +15°C° 0.1 mm 4 mps 752 mmHg 86%
    14:00 +14°C° 0 mm 4 mps 752 mmHg 83%
    15:00 +14°C° 0 mm 5 mps 752 mmHg 81%
    16:00 +13°C° 0 mm 5 mps 752 mmHg 78%
    17:00 +13°C° 0 mm 5 mps 753 mmHg 75%
    18:00 +12°C° 0 mm 5 mps 754 mmHg 72%
    19:00 +12°C° 0 mm 4 mps 754 mmHg 69%
    20:00 +11°C° 0 mm 4 mps 755 mmHg 73%
    21:00 +10°C° 0 mm 3 mps 755 mmHg 77%
    22:00 +9°C° 0 mm 2 mps 756 mmHg 81%
    23:00 +8°C° 0 mm 2 mps 756 mmHg 84%

    27 February, Wednesday

    Time Temperature Precipitation Wind Pressure Humidity
    00:00 +8°C° 0 mm 2 mps 756 mmHg 86%
    01:00 +8°C° 0 mm 1 mps 756 mmHg 88%
    02:00 +8°C° 0 mm 1 mps 756 mmHg 89%
    03:00 +8°C° 0 mm 1 mps 756 mmHg 90%
    04:00 +7°C° 0 mm 1 mps 756 mmHg 92%
    05:00 +8°C° 0 mm 1 mps 756 mmHg 89%
    06:00 +9°C° 0 mm 1 mps 757 mmHg 86%
    07:00 +9°C° 0 mm 1 mps 757 mmHg 83%
    08:00 +12°C° 0 mm 1 mps 757 mmHg 72%
    09:00 +14°C° 0 mm 1 mps 757 mmHg 61%
    10:00 +18°C° 0 mm 1 mps 758 mmHg 51%
    11:00 +18°C° 0 mm 2 mps 757 mmHg 47%
    12:00 +19°C° 0 mm 2 mps 757 mmHg 44%
    13:00 +20°C° 0 mm 3 mps 757 mmHg 40%
    14:00 +20°C° 0 mm 3 mps 756 mmHg 43%
    15:00 +19°C° 0 mm 4 mps 756 mmHg 46%
    16:00 +19°C° 0 mm 4 mps 756 mmHg 49%
    17:00 +17°C° 0 mm 4 mps 756 mmHg 56%
    18:00 +16°C° 0 mm 3 mps 756 mmHg 64%
    19:00 +13°C° 0 mm 3 mps 756 mmHg 71%
    20:00 +12°C° 0 mm 3 mps 756 mmHg 76%
    21:00 +12°C° 0 mm 3 mps 756 mmHg 81%
    22:00 +11°C° 0 mm 3 mps 756 mmHg 85%
    23:00 +11°C° 0 mm 3 mps 756 mmHg 86%
    Show more